Skip navigation

Daily Weather Reports

[Select Refresh to Update]


Yesterday's Data File


10/31/14
Time

Wind Dir
 

Wind Spd
mph

Wind Gust
mph

Hum In
%

Humidity
%

Temp In
 F

Temp
 F

Raw Barom
in

Tot Rain
in

DailyRain
in

HourRain
in

24HrRain
in

RainRate
in/hr
12:00am 336 3 4 33 79 79.5 60.0 29.99 1.00 0.00 0.00 0.00 0.000
12:00am 336 2 4 33 79 79.5 59.9 29.99 1.00 0.00 0.00 0.00 0.000
12:02am 336 2 4 33 79 79.5 59.8 29.99 1.00 0.00 0.00 0.00 0.000
12:03am 336 2 4 34 79 79.5 59.7 29.99 1.00 0.00 0.00 0.00 0.000
12:04am 336 2 4 33 79 79.5 59.6 29.99 1.00 0.00 0.00 0.00 0.000
12:05am 336 3 4 33 79 79.5 59.4 29.99 1.00 0.00 0.00 0.00 0.000
12:06am 336 1 4 34 79 79.5 59.3 29.99 1.00 0.00 0.00 0.00 0.000
12:07am 336 3 4 34 79 79.5 59.3 29.99 1.00 0.00 0.00 0.00 0.000
12:08am 336 1 4 34 79 79.5 59.3 29.99 1.00 0.00 0.00 0.00 0.000
12:08am 336 0 4 34 79 79.5 59.3 29.99 1.00 0.00 0.00 0.00 0.000
12:10am 336 0 4 33 79 79.5 59.3 29.99 1.00 0.00 0.00 0.00 0.000
12:11am 336 0 4 33 79 79.3 59.3 29.99 1.00 0.00 0.00 0.00 0.000
12:12am 336 0 4 33 80 79.3 59.4 29.99 1.00 0.00 0.00 0.00 0.000
12:13am 336 0 4 33 80 79.3 59.5 29.99 1.00 0.00 0.00 0.00 0.000
12:14am 336 0 4 34 80 79.3 59.6 29.99 1.00 0.00 0.00 0.00 0.000
12:15am 336 0 4 34 80 79.3 59.7 29.99 1.00 0.00 0.00 0.00 0.000
12:16am 336 0 0 33 80 79.3 59.7 29.99 1.00 0.00 0.00 0.00 0.000
12:17am 336 0 2 33 80 79.3 59.7 29.99 1.00 0.00 0.00 0.00 0.000
12:18am 336 3 3 33 80 79.1 59.7 29.99 1.00 0.00 0.00 0.00 0.000
12:19am 336 3 3 33 80 79.1 59.6 29.99 1.00 0.00 0.00 0.00 0.000
12:20am 336 1 3 33 80 79.1 59.6 29.99 1.00 0.00 0.00 0.00 0.000
12:21am 336 0 3 34 80 79.1 59.6 29.98 1.00 0.00 0.00 0.00 0.000
12:22am 336 0 3 34 80 79.1 59.6 29.98 1.00 0.00 0.00 0.00 0.000
12:23am 336 1 3 34 80 79.1 59.5 29.98 1.00 0.00 0.00 0.00 0.000
12:24am 336 2 3 34 80 79.1 59.5 29.98 1.00 0.00 0.00 0.00 0.000
12:25am 336 1 3 33 79 79.1 59.4 29.98 1.00 0.00 0.00 0.00 0.000
12:26am 336 1 3 33 79 79.1 59.3 29.99 1.00 0.00 0.00 0.00 0.000
12:27am 336 1 3 33 79 78.9 59.4 29.99 1.00 0.00 0.00 0.00 0.000
12:28am 336 1 3 33 79 78.9 59.3 29.98 1.00 0.00 0.00 0.00 0.000
12:29am 336 0 3 33 79 78.9 59.3 29.99 1.00 0.00 0.00 0.00 0.000
12:30am 336 2 3 33 80 78.9 59.3 29.99 1.00 0.00 0.00 0.00 0.000
12:31am 336 2 3 33 80 78.9 59.3 29.99 1.00 0.00 0.00 0.00 0.000
12:32am 336 2 3 33 80 78.9 59.4 29.99 1.00 0.00 0.00 0.00 0.000
12:33am 336 2 3 33 80 78.9 59.4 29.99 1.00 0.00 0.00 0.00 0.000
12:34am 336 1 3 33 80 78.9 59.4 29.99 1.00 0.00 0.00 0.00 0.000
12:35am 336 1 3 33 80 78.9 59.3 29.99 1.00 0.00 0.00 0.00 0.000
12:36am 336 3 4 33 79 78.8 59.3 29.99 1.00 0.00 0.00 0.00 0.000
12:37am 336 3 4 33 79 78.8 59.3 29.99 1.00 0.00 0.00 0.00 0.000
12:38am 336 2 4 33 79 78.8 59.2 29.99 1.00 0.00 0.00 0.00 0.000
12:39am 336 2 4 33 79 78.8 58.9 29.98 1.00 0.00 0.00 0.00 0.000
12:40am 336 3 4 33 79 78.8 58.8 29.98 1.00 0.00 0.00 0.00 0.000
12:41am 336 2 4 33 79 78.8 58.7 29.98 1.00 0.00 0.00 0.00 0.000
12:42am 336 3 4 33 79 78.8 58.6 29.98 1.00 0.00 0.00 0.00 0.000
12:42am 336 2 4 33 79 78.8 58.6 29.98 1.00 0.00 0.00 0.00 0.000
12:44am 336 1 4 33 79 78.8 58.7 29.98 1.00 0.00 0.00 0.00 0.000
12:45am 336 0 4 33 80 78.8 58.8 29.98 1.00 0.00 0.00 0.00 0.000
12:46am 336 0 0 33 80 78.8 58.9 29.98 1.00 0.00 0.00 0.00 0.000
12:47am 336 0 0 33 80 78.6 59.0 29.98 1.00 0.00 0.00 0.00 0.000
12:48am 336 0 0 33 80 78.6 59.0 29.98 1.00 0.00 0.00 0.00 0.000
12:49am 336 0 1 33 80 78.6 59.0 29.98 1.00 0.00 0.00 0.00 0.000
12:50am 336 0 1 33 80 78.6 59.0 29.98 1.00 0.00 0.00 0.00 0.000
12:51am 336 0 1 33 80 78.6 59.1 29.98 1.00 0.00 0.00 0.00 0.000
12:52am 336 0 1 33 80 78.6 59.1 29.98 1.00 0.00 0.00 0.00 0.000
12:53am 336 0 1 33 80 78.6 59.1 29.98 1.00 0.00 0.00 0.00 0.000
12:54am 336 0 1 33 80 78.4 59.2 29.98 1.00 0.00 0.00 0.00 0.000
12:55am 336 0 1 33 80 78.4 59.2 29.98 1.00 0.00 0.00 0.00 0.000
12:56am 336 0 1 33 80 78.4 59.2 29.98 1.00 0.00 0.00 0.00 0.000
12:56am 336 0 1 33 80 78.4 59.2 29.98 1.00 0.00 0.00 0.00 0.000
12:58am 336 0 2 33 80 78.4 59.1 29.98 1.00 0.00 0.00 0.00 0.000
12:59am 336 0 2 33 80 78.4 59.0 29.98 1.00 0.00 0.00 0.00 0.000
1:00am 336 1 2 33 79 78.4 59.0 29.97 1.00 0.00 0.00 0.00 0.000
1:01am 336 2 4 33 79 78.4 59.0 29.97 1.00 0.00 0.00 0.00 0.000
1:02am 336 3 4 33 79 78.4 59.0 29.97 1.00 0.00 0.00 0.00 0.000
1:03am 336 3 4 33 79 78.2 58.9 29.98 1.00 0.00 0.00 0.00 0.000
1:03am 336 3 4 33 79 78.2 58.8 29.98 1.00 0.00 0.00 0.00 0.000
1:05am 336 3 4 33 79 78.2 58.7 29.98 1.00 0.00 0.00 0.00 0.000
1:06am 336 3 4 33 78 78.2 58.7 29.97 1.00 0.00 0.00 0.00 0.000
1:07am 336 3 4 33 78 78.2 58.7 29.97 1.00 0.00 0.00 0.00 0.000
1:08am 336 2 4 33 78 78.2 58.8 29.98 1.00 0.00 0.00 0.00 0.000
1:09am 336 3 4 33 78 78.2 58.9 29.98 1.00 0.00 0.00 0.00 0.000
1:10am 336 2 4 33 78 78.2 59.0 29.98 1.00 0.00 0.00 0.00 0.000
1:11am 336 2 4 33 78 78.2 59.0 29.98 1.00 0.00 0.00 0.00 0.000
1:12am 336 2 4 33 78 78.1 59.1 29.98 1.00 0.00 0.00 0.00 0.000
1:13am 336 3 4 33 78 78.1 59.1 29.98 1.00 0.00 0.00 0.00 0.000
1:14am 336 2 4 33 78 78.1 59.1 29.98 1.00 0.00 0.00 0.00 0.000
1:15am 336 3 4 33 77 78.1 59.0 29.98 1.00 0.00 0.00 0.00 0.000
1:15am 336 3 3 33 77 78.1 59.0 29.98 1.00 0.00 0.00 0.00 0.000
1:17am 336 3 3 33 77 78.1 58.8 29.98 1.00 0.00 0.00 0.00 0.000
1:18am 336 2 3 33 76 78.1 58.7 29.98 1.00 0.00 0.00 0.00 0.000
1:19am 336 3 4 33 76 77.9 58.6 29.98 1.00 0.00 0.00 0.00 0.000
1:20am 336 3 4 33 76 77.9 58.5 29.98 1.00 0.00 0.00 0.00 0.000
1:21am 336 2 4 33 75 77.9 58.5 29.98 1.00 0.00 0.00 0.00 0.000
1:22am 336 0 4 33 75 77.9 58.5 29.98 1.00 0.00 0.00 0.00 0.000
1:23am 336 1 4 33 75 77.9 58.5 29.98 1.00 0.00 0.00 0.00 0.000
1:24am 336 0 4 33 75 77.9 58.6 29.98 1.00 0.00 0.00 0.00 0.000
1:25am 336 0 4 33 75 77.9 58.7 29.98 1.00 0.00 0.00 0.00 0.000
1:26am 336 0 4 33 75 77.9 58.8 29.98 1.00 0.00 0.00 0.00 0.000
1:27am 336 0 4 33 74 77.9 58.8 29.98 1.00 0.00 0.00 0.00 0.000
1:28am 336 0 4 33 74 77.7 58.9 29.98 1.00 0.00 0.00 0.00 0.000
1:29am 336 1 4 33 74 77.7 58.9 29.98 1.00 0.00 0.00 0.00 0.000
1:30am 336 2 4 33 74 77.7 59.0 29.98 1.00 0.00 0.00 0.00 0.000
1:31am 336 0 2 33 74 77.7 59.0 29.98 1.00 0.00 0.00 0.00 0.000
1:32am 336 2 3 33 73 77.7 59.0 29.98 1.00 0.00 0.00 0.00 0.000
1:33am 336 2 3 33 73 77.7 59.0 29.98 1.00 0.00 0.00 0.00 0.000
1:34am 336 3 4 33 73 77.7 59.0 29.98 1.00 0.00 0.00 0.00 0.000
1:34am 336 3 4 33 72 77.7 58.9 29.98 1.00 0.00 0.00 0.00 0.000
1:36am 336 2 4 33 72 77.7 58.9 29.98 1.00 0.00 0.00 0.00 0.000
1:37am 336 3 4 33 72 77.5 58.9 29.98 1.00 0.00 0.00 0.00 0.000
1:38am 336 3 4 33 72 77.5 58.9 29.98 1.00 0.00 0.00 0.00 0.000
1:39am 336 4 4 33 72 77.5 58.9 29.98 1.00 0.00 0.00 0.00 0.000
1:40am 336 3 4 33 72 77.5 58.9 29.98 1.00 0.00 0.00 0.00 0.000
1:41am 336 2 4 33 71 77.5 58.9 29.98 1.00 0.00 0.00 0.00 0.000
1:42am 336 2 4 33 71 77.5 58.9 29.98 1.00 0.00 0.00 0.00 0.000
1:43am 336 1 4 33 71 77.5 58.9 29.98 1.00 0.00 0.00 0.00 0.000
1:44am 336 0 4 33 71 77.5 58.9 29.98 1.00 0.00 0.00 0.00 0.000
1:45am 336 0 4 33 71 77.5 59.0 29.98 1.00 0.00 0.00 0.00 0.000
1:46am 336 0 0 33 71 77.5 58.9 29.98 1.00 0.00 0.00 0.00 0.000
1:47am 336 0 0 33 71 77.3 59.0 29.98 1.00 0.00 0.00 0.00 0.000
1:48am 336 0 0 33 70 77.3 59.0 29.98 1.00 0.00 0.00 0.00 0.000
1:49am 336 0 0 33 70 77.3 58.9 29.98 1.00 0.00 0.00 0.00 0.000
1:50am 336 0 0 33 70 77.3 58.9 29.98 1.00 0.00 0.00 0.00 0.000
1:51am 336 0 0 33 70 77.3 59.0 29.98 1.00 0.00 0.00 0.00 0.000
1:52am 336 0 2 33 70 77.3 59.0 29.98 1.00 0.00 0.00 0.00 0.000
1:53am 336 0 2 33 70 77.3 59.1 29.98 1.00 0.00 0.00 0.00 0.000
1:54am 336 0 2 33 70 77.3 59.0 29.98 1.00 0.00 0.00 0.00 0.000
1:55am 336 0 2 33 70 77.3 59.1 29.98 1.00 0.00 0.00 0.00 0.000
1:56am 336 0 2 33 70 77.2 59.1 29.98 1.00 0.00 0.00 0.00 0.000
1:57am 336 0 2 33 70 77.2 59.1 29.98 1.00 0.00 0.00 0.00 0.000
1:58am 336 0 2 33 70 77.2 59.0 29.98 1.00 0.00 0.00 0.00 0.000
1:59am 336 0 2 33 70 77.2 59.0 29.98 1.00 0.00 0.00 0.00 0.000
2:00am 336 0 2 33 70 77.2 58.9 29.98 1.00 0.00 0.00 0.00 0.000
2:01am 336 0 0 33 70 77.2 58.8 29.98 1.00 0.00 0.00 0.00 0.000
2:02am 336 0 0 33 70 77.2 58.7 29.98 1.00 0.00 0.00 0.00 0.000
2:03am 336 0 0 33 70 77.2 58.7 29.98 1.00 0.00 0.00 0.00 0.000
2:03am 336 0 0 33 70 77.2 58.6 29.98 1.00 0.00 0.00 0.00 0.000
2:05am 336 0 0 33 70 77.0 58.5 29.98 1.00 0.00 0.00 0.00 0.000
2:06am 336 0 0 33 70 77.0 58.4 29.98 1.00 0.00 0.00 0.00 0.000
2:07am 336 0 0 33 71 77.0 58.4 29.98 1.00 0.00 0.00 0.00 0.000
2:08am 336 0 0 33 71 77.0 58.3 29.98 1.00 0.00 0.00 0.00 0.000
2:09am 336 0 0 33 71 77.0 58.3 29.98 1.00 0.00 0.00 0.00 0.000
2:10am 336 0 0 33 71 77.0 58.2 29.98 1.00 0.00 0.00 0.00 0.000
2:11am 336 0 0 33 71 77.0 58.2 29.98 1.00 0.00 0.00 0.00 0.000
2:12am 336 0 0 33 71 77.0 58.1 29.98 1.00 0.00 0.00 0.00 0.000
2:13am 336 0 0 33 71 77.0 58.0 29.98 1.00 0.00 0.00 0.00 0.000
2:14am 336 0 0 33 71 76.8 58.0 29.98 1.00 0.00 0.00 0.00 0.000
2:15am 336 0 0 33 71 76.8 57.9 29.98 1.00 0.00 0.00 0.00 0.000
2:16am 336 0 0 33 71 76.8 57.9 29.98 1.00 0.00 0.00 0.00 0.000
2:17am 336 0 0 33 71 76.8 57.8 29.98 1.00 0.00 0.00 0.00 0.000
2:18am 336 0 0 33 71 76.8 57.8 29.98 1.00 0.00 0.00 0.00 0.000
2:19am 336 0 0 33 71 76.8 57.8 29.98 1.00 0.00 0.00 0.00 0.000
2:20am 336 0 0 33 72 76.8 57.7 29.98 1.00 0.00 0.00 0.00 0.000
2:21am 336 0 0 33 72 76.8 57.6 29.98 1.00 0.00 0.00 0.00 0.000
2:22am 336 0 0 33 72 76.6 57.6 29.98 1.00 0.00 0.00 0.00 0.000
2:23am 336 0 0 33 72 76.6 57.5 29.98 1.00 0.00 0.00 0.00 0.000
2:24am 336 0 0 33 72 76.6 57.5 29.98 1.00 0.00 0.00 0.00 0.000
2:25am 336 0 0 33 72 76.6 57.5 29.98 1.00 0.00 0.00 0.00 0.000
2:26am 336 0 0 33 74 76.6 57.5 29.98 1.00 0.00 0.00 0.00 0.000
2:27am 336 0 0 33 72 76.6 57.5 29.98 1.00 0.00 0.00 0.00 0.000
2:28am 336 0 0 33 72 76.6 57.5 29.98 1.00 0.00 0.00 0.00 0.000
2:29am 336 0 0 33 72 76.6 57.5 29.98 1.00 0.00 0.00 0.00 0.000
2:30am 336 1 2 33 72 76.6 57.5 29.99 1.00 0.00 0.00 0.00 0.000
2:31am 336 0 2 33 73 76.5 57.6 29.98 1.00 0.00 0.00 0.00 0.000
2:32am 336 1 2 33 73 76.5 57.6 29.98 1.00 0.00 0.00 0.00 0.000
2:33am 336 2 2 33 73 76.5 57.6 29.99 1.00 0.00 0.00 0.00 0.000
2:34am 336 2 3 33 73 76.5 57.6 29.99 1.00 0.00 0.00 0.00 0.000
2:35am 336 2 3 33 73 76.5 57.7 29.98 1.00 0.00 0.00 0.00 0.000
2:36am 336 2 3 33 73 76.5 57.8 29.99 1.00 0.00 0.00 0.00 0.000
2:37am 336 0 3 33 73 76.5 57.8 29.99 1.00 0.00 0.00 0.00 0.000
2:38am 336 0 3 33 73 76.5 57.9 29.98 1.00 0.00 0.00 0.00 0.000
2:39am 336 0 3 33 73 76.5 57.9 29.99 1.00 0.00 0.00 0.00 0.000
2:40am 336 0 3 33 74 76.3 57.9 29.99 1.00 0.00 0.00 0.00 0.000
2:41am 336 0 3 33 74 76.3 58.0 29.99 1.00 0.00 0.00 0.00 0.000
2:42am 336 0 3 33 74 76.3 58.0 29.99 1.00 0.00 0.00 0.00 0.000
2:43am 336 0 3 33 74 76.3 58.1 29.98 1.00 0.00 0.00 0.00 0.000
2:43am 336 0 3 33 74 76.3 58.1 29.99 1.00 0.00 0.00 0.00 0.000
2:45am 336 0 3 33 74 76.3 58.1 29.99 1.00 0.00 0.00 0.00 0.000
2:46am 336 0 0 33 74 76.3 58.1 29.99 1.00 0.00 0.00 0.00 0.000
2:47am 336 0 0 33 74 76.3 58.0 29.99 1.00 0.00 0.00 0.00 0.000
2:48am 336 0 0 33 74 76.3 58.0 29.99 1.00 0.00 0.00 0.00 0.000
2:49am 336 0 0 33 74 76.1 57.9 29.99 1.00 0.00 0.00 0.00 0.000
2:50am 336 0 0 33 73 76.1 57.8 29.99 1.00 0.00 0.00 0.00 0.000
2:51am 336 0 0 33 73 76.1 57.6 29.99 1.00 0.00 0.00 0.00 0.000
2:52am 336 0 0 33 73 76.1 57.5 29.99 1.00 0.00 0.00 0.00 0.000
2:53am 336 0 0 33 74 76.1 57.4 29.99 1.00 0.00 0.00 0.00 0.000
2:54am 336 0 0 33 74 76.1 57.3 29.99 1.00 0.00 0.00 0.00 0.000
2:55am 336 0 0 33 74 76.1 57.2 29.99 1.00 0.00 0.00 0.00 0.000
2:56am 336 0 0 33 74 76.1 57.2 29.99 1.00 0.00 0.00 0.00 0.000
2:57am 336 0 0 33 74 75.9 57.3 29.99 1.00 0.00 0.00 0.00 0.000
2:57am 336 1 1 33 75 75.9 57.3 29.99 1.00 0.00 0.00 0.00 0.000
2:58am 336 1 2 33 75 75.9 57.5 29.99 1.00 0.00 0.00 0.00 0.000
3:00am 336 0 3 33 76 75.9 57.7 29.99 1.00 0.00 0.00 0.00 0.000
3:00am 336 0 1 33 77 75.9 58.0 29.98 1.00 0.00 0.00 0.00 0.000
3:02am 336 1 1 33 77 75.9 58.2 29.98 1.00 0.00 0.00 0.00 0.000
3:03am 336 0 1 33 77 75.9 58.3 29.98 1.00 0.00 0.00 0.00 0.000
3:04am 336 0 1 33 77 75.9 58.5 29.98 1.00 0.00 0.00 0.00 0.000
3:05am 336 0 1 33 78 75.9 58.6 29.98 1.00 0.00 0.00 0.00 0.000
3:06am 336 0 2 33 78 75.8 58.7 29.98 1.00 0.00 0.00 0.00 0.000
3:07am 336 0 2 33 78 75.8 58.8 29.98 1.00 0.00 0.00 0.00 0.000
3:08am 336 0 2 33 78 75.8 58.8 29.98 1.00 0.00 0.00 0.00 0.000
3:09am 336 0 2 33 78 75.8 58.9 29.98 1.00 0.00 0.00 0.00 0.000
3:10am 336 0 2 33 78 75.8 58.9 29.98 1.00 0.00 0.00 0.00 0.000
3:11am 336 0 2 33 79 75.8 58.9 29.98 1.00 0.00 0.00 0.00 0.000
3:11am 336 0 2 33 79 75.8 58.9 29.98 1.00 0.00 0.00 0.00 0.000
3:13am 336 0 2 33 79 75.8 58.9 29.98 1.00 0.00 0.00 0.00 0.000
3:14am 336 0 2 33 79 75.8 58.9 29.98 1.00 0.00 0.00 0.00 0.000
3:15am 336 0 2 33 79 75.8 58.8 29.98 1.00 0.00 0.00 0.00 0.000
3:16am 336 0 1 33 79 75.6 58.8 29.98 1.00 0.00 0.00 0.00 0.000
3:17am 336 0 1 33 79 75.6 58.7 29.98 1.00 0.00 0.00 0.00 0.000
3:18am 336 1 1 33 79 75.6 58.6 29.98 1.00 0.00 0.00 0.00 0.000
3:19am 336 1 1 33 79 75.6 58.5 29.98 1.00 0.00 0.00 0.00 0.000
3:20am 336 0 1 33 79 75.6 58.5 29.98 1.00 0.00 0.00 0.00 0.000
3:21am 336 0 1 33 79 75.6 58.4 29.98 1.00 0.00 0.00 0.00 0.000
3:22am 336 0 1 33 79 75.6 58.3 29.97 1.00 0.00 0.00 0.00 0.000
3:23am 336 0 1 33 79 75.6 58.3 29.97 1.00 0.00 0.00 0.00 0.000
3:24am 336 0 1 33 79 75.6 58.3 29.97 1.00 0.00 0.00 0.00 0.000
3:25am 336 0 1 33 79 75.4 58.2 29.97 1.00 0.00 0.00 0.00 0.000
3:26am 336 0 1 33 79 75.4 58.2 29.97 1.00 0.00 0.00 0.00 0.000
3:27am 336 0 1 33 79 75.4 58.2 29.97 1.00 0.00 0.00 0.00 0.000
3:28am 336 0 1 33 79 75.4 58.1 29.97 1.00 0.00 0.00 0.00 0.000
3:29am 336 0 1 33 79 75.4 58.1 29.97 1.00 0.00 0.00 0.00 0.000
3:30am 336 0 1 33 79 75.4 58.0 29.97 1.00 0.00 0.00 0.00 0.000
3:31am 336 0 0 33 79 75.4 58.0 29.98 1.00 0.00 0.00 0.00 0.000
3:32am 336 0 0 33 79 75.4 57.9 29.97 1.00 0.00 0.00 0.00 0.000
3:33am 336 0 0 33 79 75.4 57.8 29.97 1.00 0.00 0.00 0.00 0.000
3:34am 336 0 0 33 79 75.2 57.8 29.97 1.00 0.00 0.00 0.00 0.000
3:35am 336 0 0 33 79 75.2 57.7 29.97 1.00 0.00 0.00 0.00 0.000
3:36am 336 0 0 33 79 75.2 57.6 29.97 1.00 0.00 0.00 0.00 0.000
3:37am 336 0 0 33 79 75.2 57.5 29.97 1.00 0.00 0.00 0.00 0.000
3:38am 336 0 0 33 79 75.2 57.4 29.97 1.00 0.00 0.00 0.00 0.000
3:39am 336 0 0 33 79 75.2 57.4 29.98 1.00 0.00 0.00 0.00 0.000
3:40am 336 0 0 33 80 75.2 57.4 29.97 1.00 0.00 0.00 0.00 0.000
3:41am 336 0 0 33 80 75.2 57.3 29.98 1.00 0.00 0.00 0.00 0.000
3:42am 336 0 0 33 80 75.2 57.2 29.98 1.00 0.00 0.00 0.00 0.000
3:43am 336 0 1 33 79 75.2 57.1 29.98 1.00 0.00 0.00 0.00 0.000
3:44am 336 0 1 33 79 75.1 56.9 29.98 1.00 0.00 0.00 0.00 0.000
3:45am 336 0 1 33 79 75.1 56.9 29.97 1.00 0.00 0.00 0.00 0.000
3:46am 336 0 0 33 79 75.1 56.7 29.97 1.00 0.00 0.00 0.00 0.000
3:47am 336 0 0 33 79 75.1 56.6 29.97 1.00 0.00 0.00 0.00 0.000
3:48am 336 0 0 33 79 75.1 56.5 29.97 1.00 0.00 0.00 0.00 0.000
3:49am 336 0 1 33 79 75.1 56.3 29.97 1.00 0.00 0.00 0.00 0.000
3:50am 336 0 1 33 79 75.1 56.2 29.97 1.00 0.00 0.00 0.00 0.000
3:51am 336 0 1 33 79 75.1 56.0 29.97 1.00 0.00 0.00 0.00 0.000
3:51am 336 1 1 33 79 75.1 55.9 29.97 1.00 0.00 0.00 0.00 0.000
3:53am 336 1 2 33 80 75.1 55.8 29.97 1.00 0.00 0.00 0.00 0.000
3:54am 336 2 2 33 80 74.9 55.7 29.97 1.00 0.00 0.00 0.00 0.000
3:55am 336 2 3 33 80 74.9 55.7 29.97 1.00 0.00 0.00 0.00 0.000
3:56am 336 2 3 33 80 74.9 55.6 29.97 1.00 0.00 0.00 0.00 0.000
3:57am 336 2 3 33 80 74.9 55.5 29.97 1.00 0.00 0.00 0.00 0.000
3:58am 336 1 3 33 80 74.9 55.3 29.97 1.00 0.00 0.00 0.00 0.000
3:59am 336 0 3 33 80 74.9 55.1 29.98 1.00 0.00 0.00 0.00 0.000
4:00am 336 0 3 33 80 74.9 54.9 29.98 1.00 0.00 0.00 0.00 0.000
4:01am 336 0 1 33 80 74.9 54.9 29.98 1.00 0.00 0.00 0.00 0.000
4:02am 336 0 1 33 80 74.9 54.8 29.98 1.00 0.00 0.00 0.00 0.000
4:03am 336 0 1 33 81 74.7 54.8 29.98 1.00 0.00 0.00 0.00 0.000
4:04am 336 0 1 33 81 74.7 54.9 29.98 1.00 0.00 0.00 0.00 0.000
4:05am 336 0 1 33 81 74.7 55.0 29.98 1.00 0.00 0.00 0.00 0.000
4:06am 336 0 1 33 81 74.7 55.1 29.98 1.00 0.00 0.00 0.00 0.000
4:07am 336 0 1 33 81 74.7 55.2 29.98 1.00 0.00 0.00 0.00 0.000
4:08am 336 0 1 33 82 74.7 55.3 29.98 1.00 0.00 0.00 0.00 0.000
4:09am 336 0 1 33 82 74.7 55.4 29.98 1.00 0.00 0.00 0.00 0.000
4:10am 336 0 1 33 82 74.7 55.5 29.98 1.00 0.00 0.00 0.00 0.000
4:11am 336 0 1 33 82 74.7 55.6 29.98 1.00 0.00 0.00 0.00 0.000
4:12am 336 0 1 33 82 74.7 55.7 29.98 1.00 0.00 0.00 0.00 0.000
4:13am 336 0 1 33 82 74.7 55.7 29.98 1.00 0.00 0.00 0.00 0.000
4:14am 336 0 1 33 82 74.5 55.7 29.98 1.00 0.00 0.00 0.00 0.000
4:15am 336 0 1 33 82 74.5 55.8 29.98 1.00 0.00 0.00 0.00 0.000
4:16am 336 0 0 33 82 74.5 55.8 29.98 1.00 0.00 0.00 0.00 0.000
4:17am 336 0 0 33 82 74.5 55.7 29.99 1.00 0.00 0.00 0.00 0.000
4:18am 336 0 0 33 82 74.5 55.7 29.98 1.00 0.00 0.00 0.00 0.000
4:19am 336 0 0 33 82 74.5 55.7 29.99 1.00 0.00 0.00 0.00 0.000
4:20am 336 0 0 33 82 74.5 55.7 29.99 1.00 0.00 0.00 0.00 0.000
4:21am 336 0 0 33 83 74.5 55.8 29.99 1.00 0.00 0.00 0.00 0.000
4:22am 336 0 0 33 83 74.5 55.8 29.99 1.00 0.00 0.00 0.00 0.000
4:23am 336 0 0 33 83 74.5 55.8 29.99 1.00 0.00 0.00 0.00 0.000
4:24am 336 0 0 33 83 74.5 55.8 29.99 1.00 0.00 0.00 0.00 0.000
4:25am 336 0 0 33 83 74.4 55.8 29.99 1.00 0.00 0.00 0.00 0.000
4:26am 336 0 0 33 83 74.4 55.8 29.99 1.00 0.00 0.00 0.00 0.000
4:27am 336 0 0 33 83 74.4 55.8 29.98 1.00 0.00 0.00 0.00 0.000
4:28am 336 0 0 33 83 74.4 55.7 29.99 1.00 0.00 0.00 0.00 0.000
4:28am 336 0 0 33 83 74.4 55.7 29.99 1.00 0.00 0.00 0.00 0.000
4:30am 336 0 0 33 83 74.4 55.7 29.98 1.00 0.00 0.00 0.00 0.000
4:31am 336 0 0 33 83 74.4 55.7 29.98 1.00 0.00 0.00 0.00 0.000
4:32am 336 0 0 33 83 74.4 55.7 29.98 1.00 0.00 0.00 0.00 0.000
4:33am 336 0 0 33 83 74.4 55.7 29.98 1.00 0.00 0.00 0.00 0.000
4:34am 336 0 0 33 83 74.4 55.7 29.98 1.00 0.00 0.00 0.00 0.000
4:35am 336 0 0 33 83 74.2 55.7 29.98 1.00 0.00 0.00 0.00 0.000
4:36am 336 0 0 33 83 74.2 55.7 29.98 1.00 0.00 0.00 0.00 0.000
4:37am 336 0 0 33 83 74.2 55.7 29.98 1.00 0.00 0.00 0.00 0.000
4:38am 336 0 0 33 83 74.2 55.7 29.98 1.00 0.00 0.00 0.00 0.000
4:39am 336 0 0 33 83 74.2 55.8 29.98 1.00 0.00 0.00 0.00 0.000
4:40am 336 0 0 33 83 74.2 55.8 29.98 1.00 0.00 0.00 0.00 0.000
4:41am 336 0 0 33 83 74.2 55.8 29.98 1.00 0.00 0.00 0.00 0.000
4:42am 336 0 0 33 83 74.2 55.9 29.98 1.00 0.00 0.00 0.00 0.000
4:43am 336 0 0 33 84 74.2 55.8 29.98 1.00 0.00 0.00 0.00 0.000
4:44am 336 0 0 33 84 74.0 55.9 29.98 1.00 0.00 0.00 0.00 0.000
4:45am 336 0 0 33 84 74.0 55.8 29.98 1.00 0.00 0.00 0.00 0.000
4:46am 336 0 0 33 84 74.0 55.8 29.98 1.00 0.00 0.00 0.00 0.000
4:47am 336 0 0 33 84 74.0 55.8 29.98 1.00 0.00 0.00 0.00 0.000
4:48am 336 0 0 33 84 74.0 55.8 29.98 1.00 0.00 0.00 0.00 0.000
4:49am 336 0 0 33 84 74.0 55.7 29.98 1.00 0.00 0.00 0.00 0.000
4:50am 336 0 0 33 84 74.0 55.6 29.98 1.00 0.00 0.00 0.00 0.000
4:51am 336 0 0 33 84 74.0 55.6 29.98 1.00 0.00 0.00 0.00 0.000
4:52am 336 2 2 33 84 74.0 55.4 29.98 1.00 0.00 0.00 0.00 0.000
4:53am 336 3 3 33 83 74.0 55.3 29.98 1.00 0.00 0.00 0.00 0.000
4:54am 336 2 3 33 83 73.9 55.1 29.98 1.00 0.00 0.00 0.00 0.000
4:54am 336 3 3 33 83 73.9 54.9 29.98 1.00 0.00 0.00 0.00 0.000
4:56am 336 1 3 33 83 73.9 54.8 29.98 1.00 0.00 0.00 0.00 0.000
4:57am 336 2 3 33 83 73.9 54.7 29.98 1.00 0.00 0.00 0.00 0.000
4:58am 336 1 3 33 83 73.9 54.6 29.98 1.00 0.00 0.00 0.00 0.000
4:59am 336 1 3 33 83 73.9 54.5 29.98 1.00 0.00 0.00 0.00 0.000
5:00am 336 0 3 33 83 73.9 54.5 29.98 1.00 0.00 0.00 0.00 0.000
5:01am 336 0 1 33 83 73.9 54.6 29.99 1.00 0.00 0.00 0.00 0.000
5:01am 336 0 1 33 84 73.9 54.6 29.99 1.00 0.00 0.00 0.00 0.000
5:03am 336 0 1 33 84 73.9 54.6 29.99 1.00 0.00 0.00 0.00 0.000
5:04am 336 0 1 33 84 73.9 54.6 29.99 1.00 0.00 0.00 0.00 0.000
5:05am 336 1 1 33 84 73.7 54.7 29.99 1.00 0.00 0.00 0.00 0.000
5:06am 336 1 2 33 84 73.7 54.7 29.99 1.00 0.00 0.00 0.00 0.000
5:07am 336 0 2 33 84 73.7 54.8 29.99 1.00 0.00 0.00 0.00 0.000
5:08am 336 0 2 33 84 73.7 54.9 29.99 1.00 0.00 0.00 0.00 0.000
5:09am 336 1 2 33 84 73.7 55.0 29.99 1.00 0.00 0.00 0.00 0.000
5:10am 336 0 2 33 84 73.7 55.1 29.99 1.00 0.00 0.00 0.00 0.000
5:11am 336 0 2 33 84 73.7 55.1 29.99 1.00 0.00 0.00 0.00 0.000
5:12am 336 0 2 33 84 73.7 55.2 29.99 1.00 0.00 0.00 0.00 0.000
5:13am 336 0 2 33 84 73.7 55.2 29.99 1.00 0.00 0.00 0.00 0.000
5:14am 336 0 2 33 84 73.7 55.1 29.99 1.00 0.00 0.00 0.00 0.000
5:15am 336 0 2 33 84 73.5 55.2 29.99 1.00 0.00 0.00 0.00 0.000
5:16am 336 0 0 33 84 73.5 55.2 29.99 1.00 0.00 0.00 0.00 0.000
5:17am 336 0 0 33 84 73.5 55.2 29.99 1.00 0.00 0.00 0.00 0.000
5:18am 336 1 1 33 84 73.5 55.2 29.99 1.00 0.00 0.00 0.00 0.000
5:19am 336 1 1 33 84 73.5 55.1 29.99 1.00 0.00 0.00 0.00 0.000
5:20am 336 0 1 33 84 73.5 55.1 29.99 1.00 0.00 0.00 0.00 0.000
5:21am 336 0 1 33 84 73.5 54.9 29.99 1.00 0.00 0.00 0.00 0.000
5:22am 336 0 1 33 84 73.5 54.8 29.99 1.00 0.00 0.00 0.00 0.000
5:23am 336 0 1 33 84 73.5 54.6 29.99 1.00 0.00 0.00 0.00 0.000
5:24am 336 0 1 33 83 73.5 54.5 29.99 1.00 0.00 0.00 0.00 0.000
5:25am 336 0 1 33 83 73.3 54.5 29.99 1.00 0.00 0.00 0.00 0.000
5:26am 336 0 1 33 83 73.3 54.5 29.99 1.00 0.00 0.00 0.00 0.000
5:27am 336 0 1 33 83 73.3 54.5 29.99 1.00 0.00 0.00 0.00 0.000
5:28am 336 0 1 33 84 73.3 54.6 29.99 1.00 0.00 0.00 0.00 0.000
5:29am 336 0 1 33 84 73.3 54.7 29.99 1.00 0.00 0.00 0.00 0.000
5:30am 336 0 1 33 84 73.3 54.8 29.99 1.00 0.00 0.00 0.00 0.000
5:31am 336 0 0 33 84 73.3 54.9 29.99 1.00 0.00 0.00 0.00 0.000
5:31am 336 0 0 33 84 73.3 54.9 29.99 1.00 0.00 0.00 0.00 0.000
5:33am 336 0 0 33 84 73.3 54.9 29.99 1.00 0.00 0.00 0.00 0.000
5:34am 336 0 0 33 84 73.3 55.0 29.99 1.00 0.00 0.00 0.00 0.000
5:35am 336 0 0 33 84 73.2 54.9 29.99 1.00 0.00 0.00 0.00 0.000
5:36am 336 0 0 33 84 73.2 54.9 29.99 1.00 0.00 0.00 0.00 0.000
5:37am 336 1 1 33 84 73.2 54.8 29.99 1.00 0.00 0.00 0.00 0.000
5:38am 336 1 2 33 84 73.2 54.7 29.99 1.00 0.00 0.00 0.00 0.000
5:39am 336 0 2 33 84 73.2 54.7 29.99 1.00 0.00 0.00 0.00 0.000
5:40am 336 0 2 33 84 73.2 54.7 29.99 1.00 0.00 0.00 0.00 0.000
5:41am 336 0 2 33 84 73.2 54.7 29.99 1.00 0.00 0.00 0.00 0.000
5:42am 336 0 2 33 84 73.2 54.6 29.99 1.00 0.00 0.00 0.00 0.000
5:43am 336 0 2 33 84 73.2 54.6 29.99 1.00 0.00 0.00 0.00 0.000
5:43am 336 0 2 33 84 73.2 54.6 29.99 1.00 0.00 0.00 0.00 0.000
5:45am 336 0 2 33 84 73.0 54.5 29.99 1.00 0.00 0.00 0.00 0.000
5:46am 336 0 0 33 84 73.0 54.5 29.99 1.00 0.00 0.00 0.00 0.000
5:47am 336 1 2 33 84 73.0 54.5 29.99 1.00 0.00 0.00 0.00 0.000
5:48am 336 1 2 33 84 73.0 54.5 29.99 1.00 0.00 0.00 0.00 0.000
5:48am 336 1 2 33 84 73.0 54.4 29.99 1.00 0.00 0.00 0.00 0.000
5:50am 336 0 2 33 84 73.0 54.3 29.99 1.00 0.00 0.00 0.00 0.000
5:51am 336 1 2 33 83 73.0 54.2 29.99 1.00 0.00 0.00 0.00 0.000
5:52am 336 0 2 33 83 73.0 54.2 29.99 1.00 0.00 0.00 0.00 0.000
5:53am 336 0 2 33 84 73.0 54.1 29.99 1.00 0.00 0.00 0.00 0.000
5:54am 336 0 2 33 84 72.8 54.0 29.99 1.00 0.00 0.00 0.00 0.000
5:55am 336 0 2 33 84 72.8 54.0 29.99 1.00 0.00 0.00 0.00 0.000
5:56am 336 0 2 33 84 72.8 53.9 29.99 1.00 0.00 0.00 0.00 0.000
5:57am 336 0 2 33 84 72.8 53.9 29.99 1.00 0.00 0.00 0.00 0.000
5:57am 336 0 2 33 84 72.8 53.9 29.99 1.00 0.00 0.00 0.00 0.000
5:59am 336 0 2 33 84 72.8 53.9 29.99 1.00 0.00 0.00 0.00 0.000
6:00am 336 0 2 33 84 72.8 53.9 29.99 1.00 0.00 0.00 0.00 0.000
6:01am 336 0 0 33 84 72.8 53.9 30.00 1.00 0.00 0.00 0.00 0.000
6:01am 336 0 0 33 84 72.8 53.9 29.99 1.00 0.00 0.00 0.00 0.000
6:03am 336 0 0 33 84 72.8 54.0 30.00 1.00 0.00 0.00 0.00 0.000
6:04am 336 0 0 33 84 72.8 54.1 30.00 1.00 0.00 0.00 0.00 0.000
6:05am 336 0 0 33 84 72.8 54.1 29.99 1.00 0.00 0.00 0.00 0.000
6:06am 336 0 0 33 84 72.7 54.1 29.99 1.00 0.00 0.00 0.00 0.000
6:07am 336 0 0 33 84 72.7 54.1 29.99 1.00 0.00 0.00 0.00 0.000
6:08am 336 0 0 33 84 72.7 54.2 29.99 1.00 0.00 0.00 0.00 0.000
6:09am 336 1 1 33 84 72.7 54.2 29.99 1.00 0.00 0.00 0.00 0.000
6:09am 336 0 1 33 85 72.7 54.3 29.99 1.00 0.00 0.00 0.00 0.000
6:11am 336 0 1 33 85 72.7 54.3 29.99 1.00 0.00 0.00 0.00 0.000
6:12am 336 0 1 33 85 72.7 54.3 29.99 1.00 0.00 0.00 0.00 0.000
6:13am 336 0 1 33 85 72.7 54.4 30.00 1.00 0.00 0.00 0.00 0.000
6:14am 336 0 1 33 85 72.7 54.4 30.00 1.00 0.00 0.00 0.00 0.000
6:15am 336 0 1 33 85 72.7 54.4 30.00 1.00 0.00 0.00 0.00 0.000
6:16am 336 0 0 33 85 72.7 54.4 30.00 1.00 0.00 0.00 0.00 0.000
6:17am 336 1 2 33 85 72.7 54.4 30.00 1.00 0.00 0.00 0.00 0.000
6:18am 336 1 2 33 85 72.5 54.3 30.00 1.00 0.00 0.00 0.00 0.000
6:19am 336 1 2 33 85 72.5 54.3 30.00 1.00 0.00 0.00 0.00 0.000
6:20am 336 0 2 33 85 72.5 54.3 30.00 1.00 0.00 0.00 0.00 0.000
6:21am 336 0 2 33 85 72.5 54.2 30.00 1.00 0.00 0.00 0.00 0.000
6:22am 336 1 2 33 85 72.5 54.2 30.00 1.00 0.00 0.00 0.00 0.000
6:23am 336 1 2 33 85 72.5 54.2 30.00 1.00 0.00 0.00 0.00 0.000
6:24am 336 1 2 33 85 72.5 54.3 30.00 1.00 0.00 0.00 0.00 0.000
6:24am 336 1 2 33 85 72.5 54.3 30.00 1.00 0.00 0.00 0.00 0.000
6:26am 335 3 3 33 85 72.5 54.3 30.00 1.00 0.00 0.00 0.00 0.000
6:27am 336 2 3 33 85 72.5 54.4 30.00 1.00 0.00 0.00 0.00 0.000
6:28am 336 2 3 33 85 72.5 54.4 30.00 1.00 0.00 0.00 0.00 0.000
6:29am 336 1 3 33 85 72.5 54.5 30.00 1.00 0.00 0.00 0.00 0.000
6:30am 336 0 3 33 85 72.3 54.5 30.00 1.00 0.00 0.00 0.00 0.000
6:31am 336 0 0 32 85 72.3 54.6 30.00 1.00 0.00 0.00 0.00 0.000
6:31am 336 0 1 32 85 72.3 54.6 30.00 1.00 0.00 0.00 0.00 0.000
6:33am 336 0 1 32 85 72.3 54.5 30.00 1.00 0.00 0.00 0.00 0.000
6:34am 336 1 1 32 85 72.3 54.5 30.00 1.00 0.00 0.00 0.00 0.000
6:35am 336 0 2 32 85 72.3 54.6 30.00 1.00 0.00 0.00 0.00 0.000
6:36am 336 2 2 32 85 72.3 54.6 30.00 1.00 0.00 0.00 0.00 0.000
6:37am 336 0 2 32 85 72.3 54.5 30.00 1.00 0.00 0.00 0.00 0.000
6:38am 336 2 2 32 85 72.3 54.5 30.00 1.00 0.00 0.00 0.00 0.000
6:39am 336 2 2 32 85 72.3 54.4 30.00 1.00 0.00 0.00 0.00 0.000
6:40am 336 0 2 32 85 72.3 54.4 30.00 1.00 0.00 0.00 0.00 0.000
6:41am 336 2 3 32 85 72.3 54.4 30.00 1.00 0.00 0.00 0.00 0.000
6:41am 336 2 3 32 85 72.3 54.4 30.00 1.00 0.00 0.00 0.00 0.000
6:43am 336 2 3 32 85 72.1 54.4 30.00 1.00 0.00 0.00 0.00 0.000
6:44am 336 1 3 32 85 72.1 54.4 30.00 1.00 0.00 0.00 0.00 0.000
6:45am 336 1 3 32 85 72.1 54.4 30.00 1.00 0.00 0.00 0.00 0.000
6:46am 336 1 2 32 85 72.1 54.3 30.00 1.00 0.00 0.00 0.00 0.000
6:47am 336 1 2 32 85 72.1 54.3 30.00 1.00 0.00 0.00 0.00 0.000
6:48am 336 2 3 32 85 72.1 54.2 30.00 1.00 0.00 0.00 0.00 0.000
6:49am 336 3 4 32 85 72.1 54.2 30.00 1.00 0.00 0.00 0.00 0.000
6:50am 336 3 4 32 85 72.1 54.0 30.00 1.00 0.00 0.00 0.00 0.000
6:51am 336 2 4 32 85 72.1 54.0 30.00 1.00 0.00 0.00 0.00 0.000
6:52am 336 2 4 32 85 72.1 53.9 30.00 1.00 0.00 0.00 0.00 0.000
6:53am 336 1 4 32 85 72.1 53.9 30.00 1.00 0.00 0.00 0.00 0.000
6:54am 336 1 4 32 85 72.1 54.0 30.01 1.00 0.00 0.00 0.00 0.000
6:55am 336 1 4 32 85 72.1 54.0 30.01 1.00 0.00 0.00 0.00 0.000
6:56am 336 0 4 32 85 72.1 54.0 30.01 1.00 0.00 0.00 0.00 0.000
6:57am 336 0 4 32 85 72.1 54.1 30.01 1.00 0.00 0.00 0.00 0.000
6:58am 336 0 4 32 85 72.1 54.2 30.01 1.00 0.00 0.00 0.00 0.000
6:59am 336 0 4 32 85 72.1 54.2 30.01 1.00 0.00 0.00 0.00 0.000
7:00am 336 0 4 32 85 72.1 54.2 30.01 1.00 0.00 0.00 0.00 0.000
7:01am 336 0 0 32 85 72.1 54.3 30.01 1.00 0.00 0.00 0.00 0.000
7:01am 336 0 0 32 85 72.1 54.4 30.01 1.00 0.00 0.00 0.00 0.000
7:03am 336 0 0 33 85 72.0 54.5 30.01 1.00 0.00 0.00 0.00 0.000
7:04am 336 0 0 33 85 72.0 54.5 30.01 1.00 0.00 0.00 0.00 0.000
7:05am 336 0 0 33 85 72.0 54.6 30.01 1.00 0.00 0.00 0.00 0.000
7:05am 336 0 0 33 85 72.0 54.7 30.01 1.00 0.00 0.00 0.00 0.000
7:07am 336 0 0 33 86 72.0 54.8 30.01 1.00 0.00 0.00 0.00 0.000
7:08am 336 0 0 33 85 72.0 54.9 30.01 1.00 0.00 0.00 0.00 0.000
7:09am 336 0 0 33 85 72.0 55.0 30.01 1.00 0.00 0.00 0.00 0.000
7:10am 336 0 0 33 85 72.0 55.1 30.01 1.00 0.00 0.00 0.00 0.000
7:11am 336 0 0 33 86 72.0 55.1 30.01 1.00 0.00 0.00 0.00 0.000
7:12am 336 0 0 33 86 72.0 55.3 30.01 1.00 0.00 0.00 0.00 0.000
7:13am 336 0 0 33 86 72.0 55.3 30.01 1.00 0.00 0.00 0.00 0.000
7:14am 336 0 0 33 86 72.0 55.4 30.01 1.00 0.00 0.00 0.00 0.000
7:14am 336 0 0 33 86 72.0 55.4 30.01 1.00 0.00 0.00 0.00 0.000
7:16am 336 0 0 33 86 71.8 55.4 30.01 1.00 0.00 0.00 0.00 0.000
7:17am 336 0 0 33 86 71.8 55.5 30.01 1.00 0.00 0.00 0.00 0.000
7:18am 336 0 0 33 86 71.8 55.6 30.01 1.00 0.00 0.00 0.00 0.000
7:19am 336 0 0 33 86 71.8 55.6 30.01 1.00 0.00 0.00 0.00 0.000
7:20am 336 0 0 33 86 71.8 55.6 30.01 1.00 0.00 0.00 0.00 0.000
7:21am 336 0 0 33 85 71.8 55.7 30.01 1.00 0.00 0.00 0.00 0.000
7:22am 336 0 0 33 85 71.8 55.7 30.01 1.00 0.00 0.00 0.00 0.000
7:23am 336 0 0 33 85 71.8 55.8 30.01 1.00 0.00 0.00 0.00 0.000
7:24am 336 0 0 33 85 71.8 55.8 30.01 1.00 0.00 0.00 0.00 0.000
7:25am 336 0 0 33 85 71.8 55.8 30.01 1.00 0.00 0.00 0.00 0.000
7:26am 336 0 0 33 85 71.8 55.9 30.01 1.00 0.00 0.00 0.00 0.000
7:27am 336 0 0 33 85 71.8 55.9 30.01 1.00 0.00 0.00 0.00 0.000
7:28am 336 0 0 33 86 71.8 55.9 30.01 1.00 0.00 0.00 0.00 0.000
7:29am 336 0 0 33 86 71.8 56.0 30.01 1.00 0.00 0.00 0.00 0.000
7:30am 336 0 0 33 86 71.8 56.0 30.01 1.00 0.00 0.00 0.00 0.000
7:31am 336 0 0 33 86 71.6 56.1 30.02 1.00 0.00 0.00 0.00 0.000
7:32am 336 0 0 33 85 71.6 56.2 30.02 1.00 0.00 0.00 0.00 0.000
7:33am 336 0 0 33 85 71.6 56.2 30.02 1.00 0.00 0.00 0.00 0.000
7:34am 336 0 0 33 85 71.6 56.3 30.02 1.00 0.00 0.00 0.00 0.000
7:35am 336 0 0 33 85 71.6 56.3 30.02 1.00 0.00 0.00 0.00 0.000
7:36am 336 0 0 33 85 71.6 56.4 30.02 1.00 0.00 0.00 0.00 0.000
7:37am 336 0 0 33 85 71.6 56.4 30.02 1.00 0.00 0.00 0.00 0.000
7:38am 336 0 0 33 85 71.6 56.5 30.02 1.00 0.00 0.00 0.00 0.000
7:39am 336 0 0 33 85 71.6 56.5 30.02 1.00 0.00 0.00 0.00 0.000
7:40am 336 0 0 33 85 71.6 56.5 30.02 1.00 0.00 0.00 0.00 0.000
7:41am 336 0 0 33 85 71.6 56.6 30.02 1.00 0.00 0.00 0.00 0.000
7:42am 336 0 0 33 85 71.6 56.6 30.02 1.00 0.00 0.00 0.00 0.000
7:43am 336 0 0 33 85 71.6 56.7 30.02 1.00 0.00 0.00 0.00 0.000
7:44am 336 0 0 33 85 71.6 56.7 30.02 1.00 0.00 0.00 0.00 0.000
7:45am 336 0 0 33 85 71.6 56.8 30.02 1.00 0.00 0.00 0.00 0.000
7:46am 336 0 0 33 85 71.6 56.9 30.02 1.00 0.00 0.00 0.00 0.000
7:47am 336 0 0 33 85 71.6 56.9 30.02 1.00 0.00 0.00 0.00 0.000
7:48am 336 0 0 33 85 71.6 57.0 30.02 1.00 0.00 0.00 0.00 0.000
7:49am 336 0 0 33 85 71.6 57.0 30.02 1.00 0.00 0.00 0.00 0.000
7:50am 336 0 0 33 85 71.6 57.1 30.02 1.00 0.00 0.00 0.00 0.000
7:51am 336 0 0 33 85 71.6 57.1 30.02 1.00 0.00 0.00 0.00 0.000
7:52am 336 0 0 33 85 71.6 57.1 30.02 1.00 0.00 0.00 0.00 0.000
7:53am 336 0 0 33 85 71.6 57.2 30.02 1.00 0.00 0.00 0.00 0.000
7:54am 336 0 0 33 85 71.6 57.2 30.02 1.00 0.00 0.00 0.00 0.000
7:55am 336 0 0 33 84 71.6 57.2 30.02 1.00 0.00 0.00 0.00 0.000
7:56am 336 0 0 33 84 71.6 57.3 30.02 1.00 0.00 0.00 0.00 0.000
7:57am 336 0 0 33 84 71.6 57.3 30.02 1.00 0.00 0.00 0.00 0.000
7:58am 336 0 0 33 84 71.6 57.4 30.02 1.00 0.00 0.00 0.00 0.000
7:59am 336 0 0 33 84 71.6 57.4 30.02 1.00 0.00 0.00 0.00 0.000
8:00am 336 0 0 33 84 71.6 57.4 30.03 1.00 0.00 0.00 0.00 0.000
8:01am 336 0 0 33 84 71.6 57.5 30.03 1.00 0.00 0.00 0.00 0.000
8:02am 336 0 0 33 84 71.5 57.5 30.02 1.00 0.00 0.00 0.00 0.000
8:03am 336 0 0 33 84 71.5 57.6 30.03 1.00 0.00 0.00 0.00 0.000
8:04am 336 0 0 33 84 71.5 57.6 30.03 1.00 0.00 0.00 0.00 0.000
8:05am 336 1 1 34 84 71.5 57.7 30.03 1.00 0.00 0.00 0.00 0.000
8:06am 336 1 2 34 84 71.5 57.7 30.03 1.00 0.00 0.00 0.00 0.000
8:07am 336 1 2 34 84 71.5 57.7 30.03 1.00 0.00 0.00 0.00 0.000
8:08am 336 0 2 34 84 71.5 57.7 30.03 1.00 0.00 0.00 0.00 0.000
8:09am 336 1 2 34 84 71.5 57.8 30.03 1.00 0.00 0.00 0.00 0.000
8:09am 336 1 2 34 84 71.5 57.8 30.03 1.00 0.00 0.00 0.00 0.000
8:11am 336 0 2 34 84 71.5 57.8 30.03 1.00 0.00 0.00 0.00 0.000
8:12am 336 0 2 34 84 71.5 57.8 30.03 1.00 0.00 0.00 0.00 0.000
8:13am 336 0 2 34 84 71.6 57.8 30.03 1.00 0.00 0.00 0.00 0.000
8:14am 336 0 2 34 84 71.6 57.8 30.03 1.00 0.00 0.00 0.00 0.000
8:15am 336 0 2 34 84 71.6 57.8 30.03 1.00 0.00 0.00 0.00 0.000
8:16am 336 0 0 34 84 71.6 57.8 30.03 1.00 0.00 0.00 0.00 0.000
8:17am 336 0 1 34 84 71.6 57.8 30.03 1.00 0.00 0.00 0.00 0.000
8:18am 336 0 1 34 84 71.6 57.8 30.03 1.00 0.00 0.00 0.00 0.000
8:19am 336 0 1 34 84 71.6 57.8 30.03 1.00 0.00 0.00 0.00 0.000
8:20am 336 0 1 34 84 71.6 57.8 30.03 1.00 0.00 0.00 0.00 0.000
8:21am 336 0 1 34 84 71.6 57.8 30.03 1.00 0.00 0.00 0.00 0.000
8:22am 336 0 1 34 84 71.6 57.8 30.03 1.00 0.00 0.00 0.00 0.000
8:23am 336 0 1 35 84 71.6 57.7 30.03 1.00 0.00 0.00 0.00 0.000
8:24am 336 1 1 35 84 71.6 57.7 30.03 1.00 0.00 0.00 0.00 0.000
8:25am 336 0 1 35 84 71.6 57.6 30.03 1.00 0.00 0.00 0.00 0.000
8:26am 336 0 1 35 84 71.6 57.6 30.03 1.00 0.00 0.00 0.00 0.000
8:27am 336 0 1 35 84 71.6 57.6 30.03 1.00 0.00 0.00 0.00 0.000
8:28am 336 0 1 35 84 71.6 57.6 30.03 1.00 0.00 0.00 0.00 0.000
8:29am 336 0 1 35 84 71.6 57.7 30.03 1.00 0.00 0.00 0.00 0.000
8:30am 336 0 1 35 84 71.6 57.8 30.03 1.00 0.00 0.00 0.00 0.000
8:31am 336 0 0 35 84 71.8 57.8 30.03 1.00 0.00 0.00 0.00 0.000
8:32am 336 0 0 35 84 71.8 57.8 30.03 1.00 0.00 0.00 0.00 0.000
8:33am 336 1 1 35 84 71.8 57.8 30.03 1.00 0.00 0.00 0.00 0.000
8:34am 336 0 1 35 84 71.8 57.8 30.03 1.00 0.00 0.00 0.00 0.000
8:35am 336 0 1 35 84 71.8 57.8 30.03 1.00 0.00 0.00 0.00 0.000
8:36am 336 0 1 35 84 71.8 57.8 30.03 1.00 0.00 0.00 0.00 0.000
8:37am 336 0 1 35 84 71.8 57.8 30.03 1.00 0.00 0.00 0.00 0.000
8:38am 336 0 1 35 84 71.8 57.7 30.03 1.00 0.00 0.00 0.00 0.000
8:39am 336 1 1 35 84 71.8 57.7 30.03 1.00 0.00 0.00 0.00 0.000
8:40am 336 0 1 35 84 71.8 57.6 30.03 1.00 0.00 0.00 0.00 0.000
8:41am 336 0 1 35 84 71.8 57.6 30.03 1.00 0.00 0.00 0.00 0.000
8:42am 336 0 1 35 84 71.8 57.6 30.03 1.00 0.00 0.00 0.00 0.000
8:43am 336 0 1 35 84 72.0 57.6 30.03 1.00 0.00 0.00 0.00 0.000
8:44am 336 0 1 35 84 72.0 57.6 30.03 1.00 0.00 0.00 0.00 0.000
8:45am 336 0 1 36 84 72.0 57.6 30.03 1.00 0.00 0.00 0.00 0.000
8:46am 336 0 1 36 84 72.0 57.6 30.04 1.00 0.00 0.00 0.00 0.000
8:47am 336 1 1 36 84 72.0 57.6 30.03 1.00 0.00 0.00 0.00 0.000
8:48am 336 0 1 36 84 72.0 57.5 30.04 1.00 0.00 0.00 0.00 0.000
8:49am 336 0 1 36 84 72.0 57.5 30.04 1.00 0.00 0.00 0.00 0.000
8:50am 336 1 1 36 84 72.0 57.5 30.04 1.00 0.00 0.00 0.00 0.000
8:51am 336 0 1 36 84 72.0 57.5 30.04 1.00 0.00 0.00 0.00 0.000
8:52am 336 0 2 36 84 72.0 57.6 30.04 1.00 0.00 0.00 0.00 0.000
8:52am 336 0 2 36 84 72.1 57.6 30.04 1.00 0.00 0.00 0.00 0.000
8:54am 336 0 2 36 84 72.1 57.6 30.04 1.00 0.00 0.00 0.00 0.000
8:55am 336 0 2 36 84 72.1 57.6 30.04 1.00 0.00 0.00 0.00 0.000
8:56am 336 0 2 36 84 72.1 57.7 30.04 1.00 0.00 0.00 0.00 0.000
8:57am 336 0 2 36 84 72.1 57.7 30.04 1.00 0.00 0.00 0.00 0.000
8:58am 336 0 2 36 84 72.1 57.8 30.04 1.00 0.00 0.00 0.00 0.000
8:59am 336 0 2 36 84 72.1 57.8 30.04 1.00 0.00 0.00 0.00 0.000
9:00am 336 0 2 36 84 72.1 57.9 30.04 1.00 0.00 0.00 0.00 0.000
9:01am 336 0 0 36 84 72.1 58.0 30.04 1.00 0.00 0.00 0.00 0.000
9:01am 336 0 0 36 84 72.1 58.0 30.04 1.00 0.00 0.00 0.00 0.000
9:03am 336 0 0 36 84 72.3 58.0 30.04 1.00 0.00 0.00 0.00 0.000
9:04am 336 0 0 36 84 72.3 58.1 30.04 1.00 0.00 0.00 0.00 0.000
9:04am 336 0 0 36 84 72.3 58.1 30.04 1.00 0.00 0.00 0.00 0.000
9:06am 336 0 0 36 84 72.3 58.2 30.04 1.00 0.00 0.00 0.00 0.000
9:07am 336 0 0 36 84 72.3 58.2 30.04 1.00 0.00 0.00 0.00 0.000
9:08am 336 0 0 36 84 72.3 58.2 30.04 1.00 0.00 0.00 0.00 0.000
9:09am 336 0 0 36 84 72.3 58.2 30.04 1.00 0.00 0.00 0.00 0.000
9:10am 336 0 0 36 84 72.3 58.2 30.04 1.00 0.00 0.00 0.00 0.000
9:11am 336 0 0 36 84 72.3 58.2 30.04 1.00 0.00 0.00 0.00 0.000
9:11am 336 0 0 36 84 72.3 58.2 30.05 1.00 0.00 0.00 0.00 0.000
9:13am 336 0 0 36 84 72.3 58.1 30.04 1.00 0.00 0.00 0.00 0.000
9:14am 336 0 0 36 84 72.5 58.1 30.04 1.00 0.00 0.00 0.00 0.000
9:14am 336 0 0 36 84 72.5 58.1 30.04 1.00 0.00 0.00 0.00 0.000
9:15am 336 0 0 36 84 72.5 58.1 30.04 1.00 0.00 0.00 0.00 0.000
9:17am 336 0 0 37 84 72.5 58.2 30.04 1.00 0.00 0.00 0.00 0.000
9:18am 336 0 0 37 84 72.5 58.1 30.04 1.00 0.00 0.00 0.00 0.000
9:19am 336 0 0 37 84 72.5 58.1 30.04 1.00 0.00 0.00 0.00 0.000
9:20am 336 0 0 37 84 72.5 58.1 30.04 1.00 0.00 0.00 0.00 0.000
9:21am 336 0 1 37 84 72.5 58.1 30.04 1.00 0.00 0.00 0.00 0.000
9:22am 336 0 1 37 84 72.5 58.1 30.04 1.00 0.00 0.00 0.00 0.000
9:23am 336 0 1 37 84 72.5 58.2 30.04 1.00 0.00 0.00 0.00 0.000
9:24am 336 0 1 37 84 72.5 58.2 30.04 1.00 0.00 0.00 0.00 0.000
9:25am 336 0 1 37 84 72.5 58.2 30.04 1.00 0.00 0.00 0.00 0.000
9:26am 336 0 1 37 84 72.7 58.3 30.04 1.00 0.00 0.00 0.00 0.000
9:27am 336 0 1 37 84 72.7 58.3 30.04 1.00 0.00 0.00 0.00 0.000
9:28am 336 0 1 37 84 72.7 58.3 30.04 1.00 0.00 0.00 0.00 0.000
9:29am 336 0 1 37 85 72.7 58.4 30.04 1.00 0.00 0.00 0.00 0.000
9:30am 336 0 1 37 85 72.7 58.4 30.04 1.00 0.00 0.00 0.00 0.000
9:31am 336 0 0 37 85 72.7 58.5 30.04 1.00 0.00 0.00 0.00 0.000
9:32am 336 0 0 37 85 72.7 58.7 30.04 1.00 0.00 0.00 0.00 0.000
9:33am 336 0 1 37 85 72.7 58.7 30.04 1.00 0.00 0.00 0.00 0.000
9:34am 336 1 1 37 85 72.7 58.7 30.04 1.00 0.00 0.00 0.00 0.000
9:35am 336 0 1 37 85 72.7 58.8 30.04 1.00 0.00 0.00 0.00 0.000
9:36am 336 0 1 37 85 72.7 58.8 30.04 1.00 0.00 0.00 0.00 0.000
9:37am 336 0 1 37 85 72.8 58.9 30.04 1.00 0.00 0.00 0.00 0.000
9:38am 336 1 2 37 85 72.8 58.9 30.04 1.00 0.00 0.00 0.00 0.000
9:39am 336 1 2 37 85 72.8 58.9 30.04 1.00 0.00 0.00 0.00 0.000
9:39am 336 2 2 37 85 72.8 58.9 30.04 1.00 0.00 0.00 0.00 0.000
9:41am 336 1 2 37 85 72.8 58.9 30.04 1.00 0.00 0.00 0.00 0.000
9:42am 336 1 2 37 85 72.8 59.0 30.04 1.00 0.00 0.00 0.00 0.000
9:43am 336 1 2 37 85 72.8 59.0 30.04 1.00 0.00 0.00 0.00 0.000
9:44am 336 0 2 37 85 72.8 59.1 30.04 1.00 0.00 0.00 0.00 0.000
9:45am 336 1 2 37 85 72.8 59.2 30.04 1.00 0.00 0.00 0.00 0.000
9:46am 336 2 2 37 87 72.8 59.3 30.04 1.00 0.00 0.00 0.00 0.000
9:47am 336 0 2 37 87 72.8 59.3 30.04 1.00 0.00 0.00 0.00 0.000
9:48am 336 1 3 37 85 73.0 59.3 30.04 1.00 0.00 0.00 0.00 0.000
9:49am 336 2 3 38 85 73.0 59.3 30.04 1.00 0.00 0.00 0.00 0.000
9:50am 336 1 3 38 85 73.0 59.3 30.04 1.00 0.00 0.00 0.00 0.000
9:51am 336 0 3 38 85 73.0 59.3 30.04 1.00 0.00 0.00 0.00 0.000
9:52am 336 0 3 38 85 73.0 59.3 30.04 1.00 0.00 0.00 0.00 0.000
9:53am 336 2 3 38 85 73.0 59.3 30.04 1.00 0.00 0.00 0.00 0.000
9:54am 336 1 3 38 85 73.0 59.3 30.04 1.00 0.00 0.00 0.00 0.000
9:55am 336 2 3 38 85 73.0 59.3 30.04 1.00 0.00 0.00 0.00 0.000
9:56am 336 1 3 38 85 73.0 59.3 30.04 1.00 0.00 0.00 0.00 0.000
9:57am 336 1 3 38 85 73.0 59.4 30.04 1.00 0.00 0.00 0.00 0.000
9:58am 336 2 3 38 85 73.0 59.5 30.04 1.00 0.00 0.00 0.00 0.000
9:59am 336 2 3 38 85 73.2 59.6 30.04 1.00 0.00 0.00 0.00 0.000
10:00am 336 1 3 38 85 73.2 59.6 30.04 1.00 0.00 0.00 0.00 0.000
10:01am 336 2 2 38 85 73.2 59.6 30.04 1.00 0.00 0.00 0.00 0.000
10:02am 336 1 2 38 84 73.2 59.7 30.04 1.00 0.00 0.00 0.00 0.000
10:03am 336 2 3 38 84 73.2 59.7 30.04 1.00 0.00 0.00 0.00 0.000
10:03am 336 1 3 38 84 73.2 59.7 30.04 1.00 0.00 0.00 0.00 0.000
10:05am 336 0 3 38 84 73.2 59.7 30.04 1.00 0.00 0.00 0.00 0.000
10:06am 336 0 3 38 84 73.2 59.7 30.04 1.00 0.00 0.00 0.00 0.000
10:07am 336 0 3 38 84 73.2 59.8 30.04 1.00 0.00 0.00 0.00 0.000
10:08am 336 0 3 38 84 73.2 59.8 30.04 1.00 0.00 0.00 0.00 0.000
10:09am 336 0 3 38 84 73.2 59.9 30.04 1.00 0.00 0.00 0.00 0.000
10:10am 336 0 3 38 84 73.2 59.9 30.04 1.00 0.00 0.00 0.00 0.000
10:11am 336 0 3 38 83 73.2 60.0 30.04 1.00 0.00 0.00 0.00 0.000
10:12am 336 0 3 38 83 73.2 60.1 30.04 1.00 0.00 0.00 0.00 0.000
10:13am 336 1 3 38 83 73.2 60.1 30.04 1.00 0.00 0.00 0.00 0.000
10:14am 336 0 3 38 83 73.2 60.1 30.04 1.00 0.00 0.00 0.00 0.000
10:15am 336 0 3 38 83 73.3 60.2 30.04 1.00 0.00 0.00 0.00 0.000
10:16am 336 1 1 38 83 73.3 60.2 30.04 1.00 0.00 0.00 0.00 0.000
10:17am 336 1 2 38 82 73.3 60.3 30.04 1.00 0.00 0.00 0.00 0.000
10:18am 336 0 2 38 82 73.3 60.3 30.04 1.00 0.00 0.00 0.00 0.000
10:19am 336 0 2 38 82 73.3 60.3 30.03 1.00 0.00 0.00 0.00 0.000
10:20am 336 0 2 38 82 73.3 60.4 30.03 1.00 0.00 0.00 0.00 0.000
10:21am 336 0 2 38 82 73.3 60.4 30.03 1.00 0.00 0.00 0.00 0.000
10:21am 336 0 2 38 82 73.3 60.5 30.04 1.00 0.00 0.00 0.00 0.000
10:23am 336 2 2 38 82 73.3 60.6 30.04 1.00 0.00 0.00 0.00 0.000
10:24am 336 0 2 38 82 73.3 60.7 30.03 1.00 0.00 0.00 0.00 0.000
10:25am 336 0 2 38 81 73.3 60.7 30.03 1.00 0.00 0.00 0.00 0.000
10:26am 336 0 2 39 81 73.3 60.7 30.03 1.00 0.00 0.00 0.00 0.000
10:27am 336 0 2 39 81 73.5 60.7 30.03 1.00 0.00 0.00 0.00 0.000
10:28am 336 0 2 39 81 73.5 60.8 30.04 1.00 0.00 0.00 0.00 0.000
10:29am 336 0 2 39 81 73.5 60.8 30.03 1.00 0.00 0.00 0.00 0.000
10:30am 336 0 2 39 81 73.5 60.8 30.04 1.00 0.00 0.00 0.00 0.000
10:31am 336 2 3 39 81 73.5 60.9 30.04 1.00 0.00 0.00 0.00 0.000
10:32am 336 0 3 39 80 73.5 60.9 30.04 1.00 0.00 0.00 0.00 0.000
10:33am 336 0 3 39 80 73.5 61.0 30.04 1.00 0.00 0.00 0.00 0.000
10:34am 336 0 3 39 80 73.5 61.0 30.04 1.00 0.00 0.00 0.00 0.000
10:35am 336 0 3 39 80 73.5 61.1 30.04 1.00 0.00 0.00 0.00 0.000
10:36am 336 0 3 39 80 73.5 61.1 30.03 1.00 0.00 0.00 0.00 0.000
10:37am 336 0 3 39 80 73.5 61.1 30.04 1.00 0.00 0.00 0.00 0.000
10:38am 336 0 3 39 79 73.5 61.0 30.04 1.00 0.00 0.00 0.00 0.000
10:39am 336 0 3 39 80 73.5 61.1 30.03 1.00 0.00 0.00 0.00 0.000
10:40am 336 0 3 39 80 73.7 61.2 30.03 1.00 0.00 0.00 0.00 0.000
10:41am 336 0 3 39 80 73.7 61.3 30.03 1.00 0.00 0.00 0.00 0.000
10:42am 336 0 3 39 79 73.7 61.3 30.03 1.00 0.00 0.00 0.00 0.000
10:43am 336 0 3 39 79 73.7 61.4 30.03 1.00 0.00 0.00 0.00 0.000
10:44am 336 0 3 39 79 73.7 61.5 30.03 1.00 0.00 0.00 0.00 0.000
10:45am 336 0 3 39 79 73.7 61.6 30.03 1.00 0.00 0.00 0.00 0.000
10:46am 336 0 0 39 79 73.7 61.6 30.03 1.00 0.00 0.00 0.00 0.000
10:47am 336 0 0 39 79 73.7 61.7 30.03 1.00 0.00 0.00 0.00 0.000
10:47am 336 0 1 39 79 73.7 61.8 30.03 1.00 0.00 0.00 0.00 0.000
10:49am 336 0 1 39 78 73.9 61.9 30.03 1.00 0.00 0.00 0.00 0.000
10:50am 336 0 2 39 78 73.9 62.0 30.03 1.00 0.00 0.00 0.00 0.000
10:51am 336 0 2 39 78 73.9 62.0 30.03 1.00 0.00 0.00 0.00 0.000
10:52am 336 0 2 39 78 73.9 62.0 30.03 1.00 0.00 0.00 0.00 0.000
10:53am 336 1 2 39 78 73.9 62.0 30.03 1.00 0.00 0.00 0.00 0.000
10:53am 336 1 2 39 77 73.9 62.0 30.03 1.00 0.00 0.00 0.00 0.000
10:55am 336 0 2 39 77 73.9 61.9 30.03 1.00 0.00 0.00 0.00 0.000
10:56am 336 0 2 39 77 73.9 61.9 30.02 1.00 0.00 0.00 0.00 0.000
10:57am 336 0 2 39 77 73.9 61.9 30.03 1.00 0.00 0.00 0.00 0.000
10:58am 336 0 2 39 77 73.9 61.9 30.03 1.00 0.00 0.00 0.00 0.000
10:59am 336 1 2 39 77 73.9 61.9 30.02 1.00 0.00 0.00 0.00 0.000
11:00am 336 0 2 39 77 74.0 61.9 30.02 1.00 0.00 0.00 0.00 0.000
11:01am 336 0 1 39 77 74.0 62.0 30.02 1.00 0.00 0.00 0.00 0.000
11:01am 336 0 2 39 77 74.0 62.0 30.02 1.00 0.00 0.00 0.00 0.000
11:03am 336 0 2 39 77 74.0 62.1 30.03 1.00 0.00 0.00 0.00 0.000
11:04am 336 0 2 39 77 74.0 62.2 30.03 1.00 0.00 0.00 0.00 0.000
11:05am 336 3 3 39 76 74.0 62.4 30.03 1.00 0.00 0.00 0.00 0.000
11:06am 192 4 4 39 76 74.0 62.5 30.03 1.00 0.00 0.00 0.00 0.000
11:06am 197 1 5 39 76 74.0 62.5 30.03 1.00 0.00 0.00 0.00 0.000
11:08am 197 0 5 39 76 74.2 62.7 30.03 1.00 0.00 0.00 0.00 0.000
11:09am 197 1 5 39 76 74.2 62.8 30.03 1.00 0.00 0.00 0.00 0.000
11:10am 197 1 5 39 76 74.2 63.0 30.03 1.00 0.00 0.00 0.00 0.000
11:11am 197 3 5 39 75 74.2 63.2 30.02 1.00 0.00 0.00 0.00 0.000
11:12am 197 1 5 39 75 74.2 63.2 30.02 1.00 0.00 0.00 0.00 0.000
11:13am 213 4 5 39 74 74.2 63.2 30.02 1.00 0.00 0.00 0.00 0.000
11:14am 212 2 5 39 74 74.2 63.3 30.02 1.00 0.00 0.00 0.00 0.000
11:15am 212 0 5 40 74 74.2 63.3 30.02 1.00 0.00 0.00 0.00 0.000
11:16am 212 4 4 40 74 74.2 63.4 30.02 1.00 0.00 0.00 0.00 0.000
11:17am 213 2 4 40 74 74.2 63.5 30.02 1.00 0.00 0.00 0.00 0.000
11:18am 190 2 4 40 74 74.4 63.5 30.02 1.00 0.00 0.00 0.00 0.000
11:19am 190 1 4 40 73 74.4 63.6 30.02 1.00 0.00 0.00 0.00 0.000
11:20am 190 1 4 40 73 74.4 63.6 30.02 1.00 0.00 0.00 0.00 0.000
11:21am 200 6 6 40 73 74.4 63.5 30.02 1.00 0.00 0.00 0.00 0.000
11:22am 209 3 6 40 73 74.4 63.7 30.02 1.00 0.00 0.00 0.00 0.000
11:23am 209 2 6 40 73 74.4 63.7 30.02 1.00 0.00 0.00 0.00 0.000
11:24am 209 2 6 40 73 74.4 63.8 30.01 1.00 0.00 0.00 0.00 0.000
11:25am 209 0 6 40 73 74.4 63.8 30.01 1.00 0.00 0.00 0.00 0.000
11:26am 209 0 6 40 73 74.5 63.8 30.01 1.00 0.00 0.00 0.00 0.000
11:27am 199 0 6 40 73 74.5 63.9 30.01 1.00 0.00 0.00 0.00 0.000
11:28am 200 0 6 40 73 74.5 64.1 30.01 1.00 0.00 0.00 0.00 0.000
11:29am 199 4 6 40 72 74.5 64.3 30.01 1.00 0.00 0.00 0.00 0.000
11:30am 199 4 6 40 72 74.5 64.3 30.01 1.00 0.00 0.00 0.00 0.000
11:31am 199 0 4 40 71 74.5 64.3 30.01 1.00 0.00 0.00 0.00 0.000
11:32am 199 0 4 40 71 74.5 64.3 30.01 1.00 0.00 0.00 0.00 0.000
11:33am 199 0 4 40 71 74.5 64.2 30.01 1.00 0.00 0.00 0.00 0.000
11:34am 199 0 4 40 71 74.5 64.2 30.01 1.00 0.00 0.00 0.00 0.000
11:35am 199 0 4 40 71 74.7 64.3 30.01 1.00 0.00 0.00 0.00 0.000
11:36am 199 0 4 40 71 74.7 64.4 30.01 1.00 0.00 0.00 0.00 0.000
11:37am 199 0 4 40 71 74.7 64.5 30.01 1.00 0.00 0.00 0.00 0.000
11:38am 184 2 4 40 71 74.7 64.6 30.01 1.00 0.00 0.00 0.00 0.000
11:39am 184 1 4 40 70 74.7 64.7 30.01 1.00 0.00 0.00 0.00 0.000
11:40am 182 1 4 40 69 74.7 64.6 30.01 1.00 0.00 0.00 0.00 0.000
11:41am 199 2 4 40 69 74.9 64.6 30.01 1.00 0.00 0.00 0.00 0.000
11:42am 203 3 4 40 69 74.9 64.7 30.01 1.00 0.00 0.00 0.00 0.000
11:43am 207 5 5 40 69 74.9 64.7 30.01 1.00 0.00 0.00 0.00 0.000
11:44am 219 5 9 40 69 74.9 64.6 30.01 1.00 0.00 0.00 0.00 0.000
11:45am 179 1 9 40 69 74.9 64.5 30.00 1.00 0.00 0.00 0.00 0.000
11:46am 179 0 1 40 69 74.9 64.4 30.00 1.00 0.00 0.00 0.00 0.000
11:47am 179 1 1 40 69 75.1 64.3 30.00 1.00 0.00 0.00 0.00 0.000
11:48am 182 2 4 40 70 75.1 64.3 30.00 1.00 0.00 0.00 0.00 0.000
11:49am 188 3 4 40 69 75.1 64.2 30.00 1.00 0.00 0.00 0.00 0.000
11:50am 188 4 4 40 69 75.1 64.2 30.00 1.00 0.00 0.00 0.00 0.000
11:51am 188 0 4 40 70 75.1 64.2 30.00 1.00 0.00 0.00 0.00 0.000
11:52am 182 3 4 40 70 75.1 64.2 30.00 1.00 0.00 0.00 0.00 0.000
11:53am 187 2 4 40 70 75.1 64.3 30.00 1.00 0.00 0.00 0.00 0.000
11:54am 187 2 4 40 69 75.2 64.3 30.00 1.00 0.00 0.00 0.00 0.000
11:55am 186 1 4 40 70 75.2 64.4 30.00 1.00 0.00 0.00 0.00 0.000
11:56am 196 5 5 40 70 75.2 64.4 30.00 1.00 0.00 0.00 0.00 0.000
11:56am 191 4 6 40 69 75.2 64.4 30.00 1.00 0.00 0.00 0.00 0.000
11:58am 172 3 6 40 69 75.2 64.4 30.00 1.00 0.00 0.00 0.00 0.000
11:59am 172 0 6 40 69 75.4 64.3 29.99 1.00 0.00 0.00 0.00 0.000
12:00pm 188 2 6 40 69 75.4 64.2 29.99 1.00 0.00 0.00 0.00 0.000
12:01pm 188 4 4 40 69 75.4 64.3 30.00 1.00 0.00 0.00 0.00 0.000
12:02pm 180 4 5 40 69 75.4 64.4 30.00 1.00 0.00 0.00 0.00 0.000
12:03pm 180 2 5 40 69 75.4 64.4 29.99 1.00 0.00 0.00 0.00 0.000
12:04pm 179 2 5 40 69 75.6 64.4 29.99 1.00 0.00 0.00 0.00 0.000
12:05pm 180 0 5 40 69 75.6 64.5 29.99 1.00 0.00 0.00 0.00 0.000
12:06pm 180 0 5 40 69 75.6 64.4 29.99 1.00 0.00 0.00 0.00 0.000
12:07pm 180 1 5 40 69 75.6 64.6 29.99 1.00 0.00 0.00 0.00 0.000
12:08pm 183 2 5 40 69 75.6 64.7 29.99 1.00 0.00 0.00 0.00 0.000
12:09pm 148 4 5 40 69 75.8 64.8 29.99 1.00 0.00 0.00 0.00 0.000
12:10pm 180 6 7 40 69 75.8 65.0 29.99 1.00 0.00 0.00 0.00 0.000
12:11pm 174 4 7 40 68 75.8 65.0 29.99 1.00 0.00 0.00 0.00 0.000
12:12pm 180 5 7 40 68 75.8 65.0 29.99 1.00 0.00 0.00 0.00 0.000
12:13pm 191 3 7 40 68 75.8 64.9 29.99 1.00 0.00 0.00 0.00 0.000
12:14pm 198 4 7 40 68 75.8 64.8 29.99 1.00 0.00 0.00 0.00 0.000
12:15pm 209 3 7 40 67 75.9 64.8 29.99 1.00 0.00 0.00 0.00 0.000
12:16pm 217 2 4 40 67 75.9 64.6 29.99 1.00 0.00 0.00 0.00 0.000
12:17pm 169 3 4 40 67 75.9 64.6 29.99 1.00 0.00 0.00 0.00 0.000
12:18pm 180 4 4 40 67 75.9 64.6 29.98 1.00 0.00 0.00 0.00 0.000
12:19pm 178 3 4 40 67 76.1 64.6 29.98 1.00 0.00 0.00 0.00 0.000
12:20pm 188 3 4 40 67 76.1 64.6 29.98 1.00 0.00 0.00 0.00 0.000
12:21pm 179 3 5 40 67 76.1 64.6 29.98 1.00 0.00 0.00 0.00 0.000
12:22pm 171 4 6 40 67 76.1 64.6 29.98 1.00 0.00 0.00 0.00 0.000
12:23pm 194 2 6 40 67 76.3 64.6 29.98 1.00 0.00 0.00 0.00 0.000
12:24pm 202 6 7 40 67 76.3 64.6 29.98 1.00 0.00 0.00 0.00 0.000
12:25pm 197 3 7 40 67 76.3 64.6 29.98 1.00 0.00 0.00 0.00 0.000
12:26pm 197 2 7 40 67 76.3 64.6 29.98 1.00 0.00 0.00 0.00 0.000
12:27pm 174 2 7 40 67 76.3 64.6 29.98 1.00 0.00 0.00 0.00 0.000
12:28pm 186 5 7 40 67 76.5 64.5 29.98 1.00 0.00 0.00 0.00 0.000
12:29pm 175 2 7 40 67 76.5 64.5 29.98 1.00 0.00 0.00 0.00 0.000
12:30pm 176 3 7 40 67 76.5 64.5 29.98 1.00 0.00 0.00 0.00 0.000
12:31pm 171 3 8 40 67 76.6 64.5 29.98 1.00 0.00 0.00 0.00 0.000
12:32pm 211 4 8 40 67 76.6 64.4 29.98 1.00 0.00 0.00 0.00 0.000
12:33pm 199 8 9 40 67 76.6 64.4 29.98 1.00 0.00 0.00 0.00 0.000
12:34pm 183 5 10 40 67 76.6 64.3 29.98 1.00 0.00 0.00 0.00 0.000
12:35pm 180 3 10 40 67 76.8 64.2 29.98 1.00 0.00 0.00 0.00 0.000
12:36pm 179 2 10 40 67 76.8 64.2 29.98 1.00 0.00 0.00 0.00 0.000
12:37pm 205 2 10 40 67 76.8 64.1 29.98 1.00 0.00 0.00 0.00 0.000
12:38pm 258 3 10 40 67 76.8 64.2 29.98 1.00 0.00 0.00 0.00 0.000
12:39pm 234 0 10 40 67 76.8 64.2 29.98 1.00 0.00 0.00 0.00 0.000
12:40pm 232 2 10 40 67 77.0 64.3 29.98 1.00 0.00 0.00 0.00 0.000
12:41pm 197 3 10 40 67 77.0 64.3 29.98 1.00 0.00 0.00 0.00 0.000
12:42pm 228 4 10 40 67 77.0 64.4 29.98 1.00 0.00 0.00 0.00 0.000
12:43pm 203 1 10 40 67 77.2 64.4 29.97 1.00 0.00 0.00 0.00 0.000
12:44pm 169 3 10 40 67 77.2 64.5 29.97 1.00 0.00 0.00 0.00 0.000
12:45pm 170 2 10 40 66 77.2 64.5 29.97 1.00 0.00 0.00 0.00 0.000
12:46pm 203 4 7 40 67 77.2 64.6 29.97 1.00 0.00 0.00 0.00 0.000
12:47pm 195 3 7 40 66 77.2 64.6 29.97 1.00 0.00 0.00 0.00 0.000
12:48pm 183 4 7 40 66 77.2 64.5 29.97 1.00 0.00 0.00 0.00 0.000
12:49pm 186 2 7 40 66 77.3 64.6 29.97 1.00 0.00 0.00 0.00 0.000
12:50pm 192 6 7 40 67 77.3 64.7 29.97 1.00 0.00 0.00 0.00 0.000
12:51pm 172 4 7 40 66 77.3 64.8 29.97 1.00 0.00 0.00 0.00 0.000
12:52pm 199 1 7 40 65 77.3 64.6 29.97 1.00 0.00 0.00 0.00 0.000
12:53pm 188 5 7 40 66 77.5 64.6 29.96 1.00 0.00 0.00 0.00 0.000
12:54pm 184 3 7 40 66 77.5 64.5 29.96 1.00 0.00 0.00 0.00 0.000
12:55pm 188 4 7 40 66 77.5 64.5 29.97 1.00 0.00 0.00 0.00 0.000
12:56pm 188 0 7 40 65 77.5 64.4 29.96 1.00 0.00 0.00 0.00 0.000
12:57pm 188 0 7 40 65 77.5 64.4 29.97 1.00 0.00 0.00 0.00 0.000
12:58pm 188 2 7 40 66 77.5 64.4 29.97 1.00 0.00 0.00 0.00 0.000
12:59pm 189 4 7 40 66 77.5 64.5 29.96 1.00 0.00 0.00 0.00 0.000
1:00pm 203 4 7 40 66 77.7 64.5 29.96 1.00 0.00 0.00 0.00 0.000
1:01pm 163 5 6 40 65 77.7 64.5 29.96 1.00 0.00 0.00 0.00 0.000
1:02pm 152 3 6 40 66 77.7 64.5 29.96 1.00 0.00 0.00 0.00 0.000
1:03pm 186 4 6 40 66 77.7 64.6 29.96 1.00 0.00 0.00 0.00 0.000
1:04pm 166 2 6 40 66 77.7 64.6 29.96 1.00 0.00 0.00 0.00 0.000
1:05pm 197 3 6 40 65 77.7 64.6 29.97 1.00 0.00 0.00 0.00 0.000
1:06pm 197 2 6 40 65 77.7 64.6 29.97 1.00 0.00 0.00 0.00 0.000
1:07pm 184 2 6 40 65 77.9 64.5 29.96 1.00 0.00 0.00 0.00 0.000
1:08pm 171 2 6 40 65 77.9 64.6 29.96 1.00 0.00 0.00 0.00 0.000
1:09pm 188 3 6 40 65 77.9 64.6 29.96 1.00 0.00 0.00 0.00 0.000
1:10pm 213 0 6 40 65 77.9 64.7 29.96 1.00 0.00 0.00 0.00 0.000
1:11pm 223 1 6 40 65 77.9 64.7 29.96 1.00 0.00 0.00 0.00 0.000
1:12pm 223 1 6 39 65 77.9 64.8 29.96 1.00 0.00 0.00 0.00 0.000
1:13pm 229 2 6 39 65 77.9 64.9 29.96 1.00 0.00 0.00 0.00 0.000
1:14pm 229 3 6 39 65 77.9 64.9 29.96 1.00 0.00 0.00 0.00 0.000
1:15pm 203 4 6 39 65 77.9 65.0 29.96 1.00 0.00 0.00 0.00 0.000
1:16pm 207 2 6 39 65 78.1 65.0 29.96 1.00 0.00 0.00 0.00 0.000
1:16pm 214 5 6 39 65 78.1 65.1 29.96 1.00 0.00 0.00 0.00 0.000
1:18pm 207 2 6 39 64 78.1 65.0 29.96 1.00 0.00 0.00 0.00 0.000
1:19pm 206 2 6 39 64 78.1 65.0 29.96 1.00 0.00 0.00 0.00 0.000
1:20pm 207 0 6 39 64 78.1 65.0 29.96 1.00 0.00 0.00 0.00 0.000
1:21pm 207 0 6 39 64 78.1 64.8 29.96 1.00 0.00 0.00 0.00 0.000
1:22pm 217 1 6 39 64 78.1 64.8 29.96 1.00 0.00 0.00 0.00 0.000
1:23pm 217 1 6 39 64 78.1 64.9 29.96 1.00 0.00 0.00 0.00 0.000
1:24pm 217 0 6 39 64 78.1 65.0 29.96 1.00 0.00 0.00 0.00 0.000
1:25pm 217 0 6 39 64 78.1 65.1 29.96 1.00 0.00 0.00 0.00 0.000
1:26pm 217 0 6 39 64 78.1 65.0 29.95 1.00 0.00 0.00 0.00 0.000
1:27pm 217 1 6 39 64 78.2 65.0 29.96 1.00 0.00 0.00 0.00 0.000
1:28pm 141 2 6 39 64 78.2 65.1 29.95 1.00 0.00 0.00 0.00 0.000
1:29pm 149 2 6 39 64 78.2 65.1 29.95 1.00 0.00 0.00 0.00 0.000
1:30pm 165 3 9 39 64 78.2 65.3 29.95 1.00 0.00 0.00 0.00 0.000
1:31pm 179 3 5 39 64 78.2 65.3 29.95 1.00 0.00 0.00 0.00 0.000
1:32pm 178 3 5 39 64 78.2 65.4 29.95 1.00 0.00 0.00 0.00 0.000
1:33pm 159 3 5 39 63 78.2 65.4 29.95 1.00 0.00 0.00 0.00 0.000
1:34pm 188 1 5 39 63 78.2 65.5 29.95 1.00 0.00 0.00 0.00 0.000
1:35pm 192 3 5 39 64 78.2 65.5 29.95 1.00 0.00 0.00 0.00 0.000
1:36pm 161 2 5 39 63 78.2 65.6 29.95 1.00 0.00 0.00 0.00 0.000
1:37pm 190 1 5 39 63 78.2 65.6 29.95 1.00 0.00 0.00 0.00 0.000
1:38pm 190 0 5 39 62 78.2 65.5 29.95 1.00 0.00 0.00 0.00 0.000
1:39pm 82 5 5 39 63 78.2 65.5 29.95 1.00 0.00 0.00 0.00 0.000
1:40pm 82 3 5 39 62 78.2 65.4 29.95 1.00 0.00 0.00 0.00 0.000
1:41pm 80 2 5 39 62 78.4 65.4 29.94 1.00 0.00 0.00 0.00 0.000
1:42pm 60 2 5 39 62 78.4 65.4 29.94 1.00 0.00 0.00 0.00 0.000
1:43pm 85 5 6 39 62 78.4 65.5 29.94 1.00 0.00 0.00 0.00 0.000
1:44pm 90 2 6 39 62 78.4 65.5 29.94 1.00 0.00 0.00 0.00 0.000
1:45pm 91 0 6 39 62 78.4 65.6 29.94 1.00 0.00 0.00 0.00 0.000
1:46pm 91 1 2 39 62 78.4 65.7 29.94 1.00 0.00 0.00 0.00 0.000
1:47pm 91 1 4 39 62 78.4 65.7 29.94 1.00 0.00